Greenville Downtown, SC

2:32 PM EDT on October 22, 2017 (GMT -0400)
Greenville Downtown

Weather History for KGMU - September, 2012

Change the Weather History Date:

Sunday, September 23, 2012

  Actual Average Record
Temperature  
Mean Temperature 66 °F -  
Max Temperature 79 °F 76 °F 93 °F (2010)
Min Temperature 55 °F 59 °F 46 °F (1999)
Cooling Degree Days 2    
Growing Degree Days 16 (Base 50)    
Moisture  
Dew Point 46 °F    
Average Humidity 47    
Maximum Humidity 82    
Minimum Humidity 28    
Precipitation  
Precipitation 0.00 in - - ()
Sea Level Pressure  
Sea Level Pressure 30.09 in    
Wind  
Wind Speed 4 mph (WNW)    
Max Wind Speed 13 mph    
Max Gust Speed -    
Visibility 10 miles    
Events      
Averages and records for this station are not official NWS values.
T = Trace of Precipitation, MM = Missing Value Source: NWS Daily Summary

Daily Weather History Graph

Daily Weather History Graph

Search for Another Location

Airport or City:

Trip Planner

Search our weather history database for the weather conditions in past years. The results will help you decide how hot, cold, wet, or windy it might be!

Date:

Astronomy

Sep. 23, 2012 Rise Set
Actual Time 7:18 AM EDT 7:24 PM EDT
Civil Twilight 6:53 AM EDT 7:49 PM EDT
Nautical Twilight 6:23 AM EDT 8:18 PM EDT
Astronomical Twilight 5:54 AM EDT 8:48 PM EDT
Moon 3:12 PM EDT (9/23) 12:42 AM EDT (9/23)
Length of Visible Light 12h 55m
Length of Day
12h 05m
First Quarter, 60% of the Moon is Illuminated
Sep 23
First Quarter
Sep 29
Full
Oct 8
Last Quarter
Oct 15
New
Oct 21
First Quarter

Hourly Weather History & Observations

Time (EDT) Temp. Dew Point Humidity Pressure Visibility Wind Dir Wind Speed Gust Speed Precip Events Conditions
12:53 AM 68.0 °F 50.0 °F 52% 30.03 in 10.0 mi North 8.1 mph - N/A   Clear
1:53 AM 64.9 °F 48.0 °F 54% 30.03 in 10.0 mi North 5.8 mph - N/A   Clear
2:53 AM 64.0 °F 46.0 °F 52% 30.03 in 10.0 mi NW 3.5 mph - N/A   Clear
3:53 AM 63.0 °F 44.1 °F 50% 30.04 in 10.0 mi Calm Calm - N/A   Clear
4:53 AM 59.0 °F 46.9 °F 64% 30.05 in 10.0 mi Calm Calm - N/A   Clear
5:53 AM 59.0 °F 46.9 °F 64% 30.07 in 10.0 mi West 3.5 mph - N/A   Clear
6:53 AM 55.0 °F 48.0 °F 77% 30.09 in 10.0 mi Calm Calm - N/A   Clear
7:53 AM 57.0 °F 48.9 °F 74% 30.11 in 10.0 mi Calm Calm - N/A   Clear
8:09 AM 55.4 °F 50.0 °F 82% 30.13 in 10.0 mi Calm Calm - N/A   Partly Cloudy
8:53 AM 64.9 °F 48.0 °F 54% 30.12 in 10.0 mi North 3.5 mph - N/A   Partly Cloudy
9:53 AM 69.1 °F 46.0 °F 44% 30.14 in 10.0 mi Calm Calm - N/A   Clear
10:53 AM 72.0 °F 42.1 °F 34% 30.13 in 10.0 mi West 4.6 mph - N/A   Clear
11:53 AM 73.0 °F 44.1 °F 35% 30.14 in 10.0 mi SW 3.5 mph - N/A   Clear
12:53 PM 73.9 °F 44.1 °F 34% 30.13 in 10.0 mi SW 3.5 mph - N/A   Clear
1:53 PM 77.0 °F 44.1 °F 31% 30.11 in 10.0 mi WSW 6.9 mph - N/A   Clear
2:53 PM 75.9 °F 43.0 °F 31% 30.09 in 10.0 mi Calm Calm - N/A   Clear
3:53 PM 78.1 °F 45.0 °F 31% 30.07 in 10.0 mi SSW 8.1 mph - N/A   Clear
4:50 PM 78.8 °F 44.6 °F 30% 30.08 in 10.0 mi WSW 5.8 mph - N/A   Partly Cloudy
4:53 PM 78.1 °F 44.1 °F 30% 30.06 in 10.0 mi West 4.6 mph - N/A   Partly Cloudy
5:53 PM 78.1 °F 42.1 °F 28% 30.06 in 10.0 mi SSW 6.9 mph - N/A   Clear
6:53 PM 75.0 °F 46.0 °F 36% 30.07 in 10.0 mi SW 5.8 mph - N/A   Clear
7:53 PM 72.0 °F 46.9 °F 41% 30.07 in 10.0 mi SW 3.5 mph - N/A   Clear
8:53 PM 66.0 °F 48.9 °F 54% 30.09 in 10.0 mi NNE 12.7 mph - N/A   Clear
9:53 PM 63.0 °F 44.1 °F 50% 30.11 in 10.0 mi North 9.2 mph - N/A   Clear
10:53 PM 62.1 °F 42.1 °F 48% 30.12 in 10.0 mi NNE 8.1 mph - N/A   Clear
11:53 PM 61.0 °F 42.1 °F 50% 30.13 in 10.0 mi NNE 6.9 mph - N/A   Clear